Regional Weather Roundup
Issued by NWS

Home | Current Version | Previous Version | Text Only | Print | Product List | Glossary Off
Versions: 1 2 3 4 5 6 7 8 9 10 11 12 13 14 15 16 17 18 19 20 21 22 23 24 25 26 27 28 29 30 31 32 33 34 35 36 37 38 39 40 41 42 43 44 45 46 47 48 49 50

000
ASUS43 KLOT 291208
RWRIL

ILLINOIS REGIONAL WEATHER ROUNDUP
NATIONAL WEATHER SERVICE CHICAGO/ROMEOVILLE IL
700 AM CDT WED JUL 29 2015

NOTE: "FAIR" INDICATES FEW OR NO CLOUDS BELOW 12,000 FEET WITH NO
SIGNIFICANT WEATHER AND/OR OBSTRUCTIONS TO VISIBILITY.

* THESE STATIONS ARE NOT UNDER NWS QUALITY CONTROL. THEY ALSO MAY NOT
  REPORT WEATHER SUCH AS PRECIPITATION OR FOG.

ILZ001-002-007-009-015-016-024-291300-
NORTHWEST ILLINOIS

CITY           SKY/WX    TMP DP  RH WIND       PRES   REMARKS
MOLINE         CLOUDY    74  70  87 NW7       30.00R
6HR MIN TEMP:  74; 6HR MAX TEMP:  78; 6HR PCP: TRACE;

STERLING*      CLOUDY    73  72  94 W8        29.97S
SAVANNA*       CLOUDY    75  69  84 NW5       29.99S
$$

ILZ003-004-008-010-011-017-018-291300-
NORTH CENTRAL ILLINOIS

CITY           SKY/WX    TMP DP  RH WIND       PRES   REMARKS
ROCKFORD       CLOUDY    75  71  87 NW10      29.98R
6HR MIN TEMP:  74; 6HR MAX TEMP:  76;

FREEPORT*      CLOUDY    72  67  85 NW8       30.01R
ROCHELLE*      PTSUNNY   73  72  96 W5        29.98S FOG
DE KALB*       PTSUNNY   74  73  95 W12       29.98R
PERU*          CLOUDY    74  72  92 NW8       29.98S
$$

ILZ005-006-012>014-019>023-291300-
NORTHEAST ILLINOIS

CITY           SKY/WX    TMP DP  RH WIND       PRES   REMARKS
CHICAGO-OHARE  CLOUDY    76  71  85 W8        29.94R
6HR MIN TEMP:  75; 6HR MAX TEMP:  81; 6HR PCP: TRACE;

CHICAGO-MIDWAY CLOUDY    78  70  76 SW6       29.94R HX  80
6HR MIN TEMP:  77; 6HR MAX TEMP:  83; 6HR PCP:  0.07;

AURORA         CLOUDY    74  70  87 W6        29.96R FOG
6HR MIN TEMP:  72; 6HR MAX TEMP:  76; 6HR PCP:  0.64;

LANSING*       CLOUDY    74  70  89 W5        29.96R
JOLIET*        CLOUDY    74  73  95 CALM      29.95S
WAUKEGAN       CLOUDY    75  71  87 VRB5      29.93R
6HR MIN TEMP:  73; 6HR MAX TEMP:  76; 6HR PCP: TRACE;

DUPAGE AIRPORT CLOUDY    74  71  91 W7        29.95S
6HR MIN TEMP:  73; 6HR MAX TEMP:  78; 6HR PCP: TRACE;

KANKAKEE*      CLOUDY    73  73  99 W3        29.97R
WHEELING       CLOUDY    76  70  82 VRB6      29.94S
6HR MIN TEMP:  76; 6HR MAX TEMP:  80; 6HR PCP: TRACE;

MORRIS*        CLOUDY    73  71  95 W3        29.93S
ROMEOVILLE*    CLOUDY    73  72  96 W6        29.96R
NORTHERLY ISL    N/A     77  69  76 W7          N/A
$$

LMZ740>746-291300-
SOUTHERN LAKE MICHIGAN

STATION/POSITION SKY/WX   TEMP    WIND        PRES    VSBY  WAVE
                          AIR SEA DIR/SP/G                  HT/PER
                          (F)     (DEG/KT/KT) (MB)    (MI)  (FT/S)
HARRISON CRIB              76     260/ 12/ 14   N/A
BURNHAM HARBOR             77     250/ 12       N/A
CALUMET HARBOR             75     230/  3/  6   N/A
BURNS HARBOR               75     260/  5/  7 1014.2R
MICHIGAN CITY              75     230/  7/  8   N/A
MICHIGAN CITY 6N           75 74  260/  6/  6   N/A           1/ 2
ST. JOSEPH                 75 75  280/ 10/ 10   N/A           1/ 2
$$

ILZ025>027-034>036-040-047-049-050-058-095>099-291300-
WEST-CENTRAL ILLINOIS

CITY           SKY/WX    TMP DP  RH WIND       PRES   REMARKS
QUINCY         CLOUDY    72  70  93 N7        30.02F
GALESBURG*     CLOUDY    72  69  91 NW8       30.00S
MACOMB*        CLOUDY    73  70  93 NW7       30.03S
JACKSONVILLE*  CLOUDY    75  72  91 NW8       30.00R
PITTSFIELD*    CLOUDY    74  70  87 NW5       30.03S
$$

ILZ028>032-037-038-041>044-048-051>054-059>061-291300-
CENTRAL ILLINOIS

CITY           SKY/WX    TMP DP  RH WIND       PRES   REMARKS
PONTIAC        CLOUDY    75  74  97 W6        29.98R
BLOOMINGTON    CLOUDY    74  74 100 S3        30.00R
DECATUR        CLOUDY    75  72  90 CALM      29.98R
PEORIA         CLOUDY    77  73  87 NW3       29.98R
6HR MIN TEMP:  75; 6HR MAX TEMP:  81; 6HR PCP:  0.43;

LACON*         CLOUDY    74  72  93 NW3       29.97S
LINCOLN*       CLOUDY    76  73  90 CALM      29.98R
SPRINGFIELD    CLOUDY    79  76  90 NW8       29.98R HX  83
6HR MIN TEMP:  77; 6HR MAX TEMP:  82;

TAYLORVILLE    CLOUDY    73  73 100 CALM      29.98R FOG
$$

ILZ033-039-045-046-055>057-062-063-291300-
EAST-CENTRAL ILLINOIS

CITY           SKY/WX    TMP DP  RH WIND       PRES   REMARKS
CHAMPAIGN      CLOUDY    73  72  96 S3        29.98R FOG
DANVILLE*      CLOUDY    72  71  99 S3        29.96R
RANTOUL*       CLOUDY    76  74  95 N5        29.98R
MATTOON        LGT RAIN  75  72  90 SE7       29.97F
PARIS*         PTSUNNY   72  72  98 CALM      29.98F
$$

ILZ079-100>102-291300-
SOUTHWEST ILLINOIS

CITY           SKY/WX    TMP DP  RH WIND       PRES   REMARKS
ALTON          MOSUNNY   77  77 100 W9        29.99R
BELLEVILLE     SUNNY     79  79 100 SW6       29.97S HX  85
CAHOKIA*       SUNNY     81  75  82 SW3       29.98S HX  87
SPARTA*        SUNNY     78  76  92 CALM      30.00S HX  82
$$

ILZ064>066-069>071-074>076-080>082-084>086-088>090-092>094-291300-
SOUTH-CENTRAL ILLINOIS

CITY           SKY/WX    TMP DP  RH WIND       PRES   REMARKS
CARBONDALE     SUNNY     77  75  93 CALM      29.99S
6HR MIN TEMP:  75; 6HR MAX TEMP:  77;

CAIRO*         SUNNY     76  75  96 CALM      30.01R
EFFINGHAM*     PTSUNNY   75  73  91 N6        29.99S FOG
MARION         MOSUNNY   77  75  94 S5        30.00S
MT. VERNON     MOSUNNY   75  70  83 CALM      30.00S
CENTRALIA*     MOSUNNY   78  75  91 CALM      29.99S FOG
SALEM*         MOSUNNY   78  76  91 CALM      29.99S FOG     HX  81
METROPOLIS*    SUNNY     74  74 100 CALM      30.01S
$$

ILZ067-068-072-073-078-083-087-091-291300-
SOUTHEAST ILLINOIS

CITY           SKY/WX    TMP DP  RH WIND       PRES   REMARKS
LAWRENCEVILLE  PTSUNNY   76  75  97 SW5       29.99S FOG
FLORA*         PTSUNNY   77  75  95 SW3       29.98F FOG
FAIRFIELD*     PTSUNNY   77  75  95 SW5       29.97F
HARRISBURG*    SUNNY     74  74 100 CALM      30.00S
ROBINSON*      PTSUNNY   76  74  96 CALM      30.01S THUNDER FOG
CARMI*         PTSUNNY   75  70  84 MISG      29.99R HAZE
$$

ABBREVIATIONS USED IN REMARKS
   TC - TEMPERATURE IN CELSIUS
  WCI - WIND CHILL INDEX
   HX - HEAT INDEX
  VSB - VISIBILITY
$$




USA.gov is the U.S. government's official web portal to all federal, state and local government web resources and services.